timestamp,wind_dir_avg,wind_spd_avg,wind_spd_max_dir,wind_spd_gust,battery_voltage,lat,long
2021-09-05 00:04:00+00:00,223.0,5.0,224.0,6.21,12.65,47.59359,-54.27349
2021-09-05 00:14:01+00:00,230.0,5.31,230.0,6.32,12.65,47.59359,-54.27349
2021-09-05 00:24:01+00:00,220.0,4.62,227.0,5.39,12.65,47.59359,-54.27349
2021-09-05 00:34:01+00:00,225.0,3.84,225.0,4.82,12.65,47.59359,-54.27349
2021-09-05 00:44:01+00:00,220.0,4.33,228.0,4.94,12.65,47.59359,-54.27349
2021-09-05 00:54:01+00:00,227.0,4.35,228.0,6.1,12.65,47.59359,-54.27349
2021-09-05 01:04:01+00:00,233.0,4.12,241.0,4.7,12.65,47.59359,-54.27349
2021-09-05 01:14:01+00:00,226.0,4.39,228.0,5.0,12.65,47.59359,-54.27349
2021-09-05 01:24:01+00:00,215.0,5.48,215.0,6.4,12.65,47.59359,-54.27349
2021-09-05 01:34:01+00:00,214.0,5.67,214.0,6.34,12.65,47.59359,-54.27349
2021-09-05 01:44:01+00:00,213.0,5.41,222.0,6.24,12.65,47.59359,-54.27349
2021-09-05 01:54:01+00:00,214.0,5.61,214.0,6.44,12.65,47.59359,-54.27349
2021-09-05 02:04:01+00:00,216.0,4.38,219.0,5.22,12.65,47.59359,-54.27349
2021-09-05 02:14:00+00:00,210.0,3.45,214.0,4.05,12.65,47.59359,-54.27349
2021-09-05 02:24:00+00:00,200.0,3.54,194.0,4.21,12.65,47.59359,-54.27349
2021-09-05 02:34:00+00:00,199.0,3.81,201.0,4.2,12.65,47.59359,-54.27349
2021-09-05 02:44:00+00:00,207.0,4.86,207.0,5.87,12.65,47.59359,-54.27349
2021-09-05 02:54:00+00:00,218.0,5.39,218.0,6.18,12.65,47.59359,-54.27349
2021-09-05 03:04:00+00:00,217.0,5.27,221.0,5.94,12.65,47.59359,-54.27349
2021-09-05 03:14:00+00:00,223.0,6.09,223.0,6.8,12.65,47.59359,-54.27349
2021-09-05 03:24:00+00:00,228.0,5.0,224.0,6.54,12.65,47.59359,-54.27349
2021-09-05 03:34:00+00:00,239.0,4.1,243.0,4.69,12.65,47.59359,-54.27349
2021-09-05 03:44:00+00:00,233.0,4.05,234.0,4.77,12.65,47.59359,-54.27349
2021-09-05 03:54:00+00:00,235.0,4.51,240.0,5.39,12.65,47.59359,-54.27349
2021-09-05 04:04:00+00:00,250.0,5.7,251.0,6.13,12.65,47.59359,-54.27349
2021-09-05 04:14:00+00:00,250.0,6.86,255.0,7.97,12.57,47.59359,-54.27349
2021-09-05 04:24:00+00:00,236.0,7.47,235.0,8.34,12.57,47.59359,-54.27349
2021-09-05 04:34:00+00:00,222.0,7.38,225.0,9.85,12.57,47.59359,-54.27349
2021-09-05 04:44:00+00:00,211.0,6.58,209.0,7.08,12.57,47.59359,-54.27349
2021-09-05 04:54:00+00:00,218.0,5.73,216.0,6.71,12.57,47.59359,-54.27349
2021-09-05 05:04:00+00:00,231.0,3.96,229.0,4.48,12.57,47.59359,-54.27349
2021-09-05 05:14:01+00:00,234.0,2.86,240.0,3.58,12.57,47.59359,-54.27349
2021-09-05 05:24:01+00:00,235.0,1.98,236.0,2.4,12.57,47.59359,-54.27349
2021-09-05 05:34:01+00:00,238.0,2.22,230.0,2.95,12.57,47.59359,-54.27349
2021-09-05 05:44:01+00:00,239.0,1.22,253.0,1.48,12.57,47.59359,-54.27349
2021-09-05 05:54:01+00:00,223.0,1.82,218.0,2.44,12.57,47.59359,-54.27349
2021-09-05 06:04:01+00:00,231.0,1.41,226.0,1.6,12.57,47.59359,-54.27349
2021-09-05 06:14:01+00:00,279.0,1.16,279.0,1.29,12.57,47.59359,-54.27349
2021-09-05 06:24:01+00:00,287.0,1.32,280.0,1.53,12.57,47.59359,-54.27349
2021-09-05 06:34:01+00:00,277.0,0.94,279.0,1.2,12.57,47.59359,-54.27349
2021-09-05 06:44:01+00:00,241.0,0.89,246.0,1.06,12.57,47.59359,-54.27349
2021-09-05 06:54:01+00:00,207.0,1.66,207.0,2.0,12.57,47.59359,-54.27349
2021-09-05 07:04:01+00:00,230.0,2.08,222.0,2.52,12.57,47.59359,-54.27349
2021-09-05 07:14:00+00:00,241.0,1.53,240.0,1.9,12.57,47.59359,-54.27349
2021-09-05 07:24:00+00:00,214.0,2.47,211.0,3.04,12.57,47.59359,-54.27349
2021-09-05 07:34:00+00:00,221.0,1.93,226.0,2.36,12.57,47.59359,-54.27349
2021-09-05 07:44:00+00:00,211.0,1.68,224.0,2.31,12.57,47.59359,-54.27349
2021-09-05 07:54:00+00:00,336.0,0.99,337.0,1.15,12.57,47.59359,-54.27349
2021-09-05 08:04:00+00:00,333.0,0.47,339.0,0.81,12.57,47.59359,-54.27349
2021-09-05 08:14:01+00:00,326.0,1.57,326.0,1.85,12.49,47.59359,-54.27349
2021-09-05 08:24:01+00:00,327.0,1.76,328.0,2.11,12.49,47.59359,-54.27349
2021-09-05 08:34:01+00:00,350.0,1.44,353.0,1.87,12.49,47.59359,-54.27349
2021-09-05 08:44:01+00:00,283.0,2.8,281.0,3.37,12.49,47.59359,-54.27349
2021-09-05 08:54:01+00:00,273.0,0.33,267.0,0.7,12.49,47.59359,-54.27349
2021-09-05 09:04:01+00:00,358.0,1.06,7.0,1.66,12.49,47.59359,-54.27349
2021-09-05 09:14:01+00:00,20.0,1.97,20.0,2.3,12.41,47.59359,-54.27349
2021-09-05 09:24:01+00:00,11.0,2.78,9.0,3.66,12.41,47.59359,-54.27349
2021-09-05 09:34:01+00:00,6.0,2.82,6.0,3.15,12.41,47.59359,-54.27349
2021-09-05 09:44:01+00:00,358.0,3.29,353.0,3.74,12.41,47.59359,-54.27349
2021-09-05 09:54:01+00:00,355.0,2.65,356.0,2.99,12.41,47.59359,-54.27349
2021-09-05 10:04:01+00:00,19.0,1.33,24.0,1.78,12.41,47.59359,-54.27349
2021-09-05 10:14:01+00:00,156.0,1.14,160.0,1.4,12.49,47.59359,-54.27349
2021-09-05 10:24:01+00:00,131.0,0.99,123.0,1.45,12.49,47.59359,-54.27349
2021-09-05 10:34:01+00:00,116.0,1.0,116.0,1.19,12.49,47.59359,-54.27349
2021-09-05 10:44:01+00:00,107.0,0.84,117.0,1.15,12.49,47.59359,-54.27349
2021-09-05 10:54:01+00:00,102.0,0.22,108.0,0.32,12.49,47.59359,-54.27349
2021-09-05 11:04:01+00:00,101.0,0.43,113.0,0.62,12.49,47.59359,-54.27349
2021-09-05 11:14:01+00:00,67.0,0.99,64.0,1.15,13.84,47.59359,-54.27349
2021-09-05 11:24:01+00:00,27.0,1.27,28.0,1.61,13.84,47.59359,-54.27349
2021-09-05 11:34:01+00:00,8.0,2.62,7.0,2.95,13.84,47.59359,-54.27349
2021-09-05 11:44:01+00:00,15.0,2.49,6.0,3.08,13.84,47.59359,-54.27349
2021-09-05 11:54:01+00:00,33.0,2.75,33.0,3.39,13.84,47.59359,-54.27349
2021-09-05 12:04:01+00:00,352.0,5.81,351.0,6.29,13.84,47.59359,-54.27349
2021-09-05 12:14:01+00:00,8.0,7.74,9.0,8.63,13.37,47.59359,-54.27349
2021-09-05 12:24:01+00:00,41.0,8.29,48.0,9.06,13.37,47.59359,-54.27349
2021-09-05 12:34:01+00:00,47.0,8.57,49.0,9.54,13.37,47.59359,-54.27349
2021-09-05 12:44:01+00:00,53.0,9.03,50.0,10.37,13.37,47.59359,-54.27349
2021-09-05 12:54:01+00:00,53.0,8.76,55.0,9.48,13.37,47.59359,-54.27349
2021-09-05 13:04:01+00:00,45.0,8.95,47.0,9.96,13.37,47.59359,-54.27349
2021-09-05 13:14:01+00:00,34.0,8.06,33.0,8.97,13.76,47.59359,-54.27349
2021-09-05 13:24:01+00:00,43.0,7.79,40.0,9.21,13.76,47.59359,-54.27349
2021-09-05 13:34:01+00:00,39.0,7.41,36.0,9.32,13.76,47.59359,-54.27349
2021-09-05 13:44:01+00:00,43.0,8.61,44.0,9.58,13.76,47.59359,-54.27349
2021-09-05 13:54:01+00:00,39.0,7.91,43.0,8.69,13.76,47.59359,-54.27349
2021-09-05 14:04:01+00:00,39.0,8.4,38.0,9.46,13.76,47.59359,-54.27349
2021-09-05 14:14:01+00:00,44.0,7.83,37.0,8.69,13.68,47.59359,-54.27349
2021-09-05 14:24:01+00:00,45.0,8.66,48.0,9.96,13.68,47.59359,-54.27349
2021-09-05 14:34:01+00:00,41.0,8.68,43.0,9.21,13.68,47.59359,-54.27349
2021-09-05 14:44:01+00:00,40.0,7.96,35.0,8.93,13.68,47.59359,-54.27349
2021-09-05 14:54:01+00:00,42.0,8.82,42.0,9.77,13.68,47.59359,-54.27349
2021-09-05 15:04:01+00:00,44.0,7.56,41.0,8.66,13.68,47.59359,-54.27349
2021-09-05 15:14:01+00:00,47.0,7.37,53.0,8.5,14.0,47.59359,-54.27349
2021-09-05 15:24:01+00:00,33.0,8.54,32.0,9.18,14.0,47.59359,-54.27349
2021-09-05 15:34:01+00:00,42.0,6.66,42.0,7.61,14.0,47.59359,-54.27349
2021-09-05 15:44:01+00:00,29.0,7.32,28.0,8.06,14.0,47.59359,-54.27349
2021-09-05 15:54:01+00:00,45.0,7.49,40.0,8.28,14.0,47.59359,-54.27349
2021-09-05 16:04:01+00:00,36.0,6.63,35.0,7.43,14.0,47.59359,-54.27349
2021-09-05 16:14:01+00:00,45.0,6.13,45.0,7.22,13.92,47.59359,-54.27349
2021-09-05 16:24:01+00:00,48.0,6.63,43.0,7.68,13.92,47.59359,-54.27349
2021-09-05 16:34:01+00:00,47.0,7.78,47.0,8.53,13.92,47.59359,-54.27349
2021-09-05 16:44:01+00:00,35.0,6.9,36.0,7.65,13.92,47.59359,-54.27349
2021-09-05 16:54:01+00:00,41.0,9.67,38.0,10.64,13.92,47.59359,-54.27349
2021-09-05 17:04:01+00:00,41.0,6.34,42.0,7.12,13.92,47.59359,-54.27349
2021-09-05 17:14:01+00:00,4.0,5.53,2.0,6.4,13.92,47.59359,-54.27349
2021-09-05 17:24:01+00:00,23.0,5.49,27.0,7.48,13.92,47.59359,-54.27349
2021-09-05 17:34:01+00:00,33.0,7.01,28.0,8.22,13.92,47.59359,-54.27349
2021-09-05 17:44:01+00:00,12.0,7.29,18.0,7.96,13.92,47.59359,-54.27349
2021-09-05 17:54:01+00:00,26.0,4.7,33.0,5.67,13.92,47.59359,-54.27349
2021-09-05 18:04:01+00:00,42.0,7.63,44.0,8.74,13.92,47.59359,-54.27349
2021-09-05 18:14:01+00:00,30.0,5.67,34.0,6.49,13.76,47.59359,-54.27349
2021-09-05 18:24:01+00:00,5.0,9.28,2.0,10.88,13.76,47.59359,-54.27349
2021-09-05 18:34:01+00:00,6.0,7.81,356.0,9.44,13.76,47.59359,-54.27349
2021-09-05 18:44:01+00:00,3.0,9.06,6.0,10.08,13.76,47.59359,-54.27349
2021-09-05 18:54:01+00:00,13.0,7.04,17.0,8.43,13.76,47.59359,-54.27349
2021-09-05 19:04:01+00:00,30.0,8.9,29.0,9.63,13.76,47.59359,-54.27349
2021-09-05 19:14:01+00:00,34.0,8.06,35.0,8.71,13.92,47.59359,-54.27349
2021-09-05 19:24:01+00:00,20.0,6.8,13.0,7.76,13.92,47.59359,-54.27349
2021-09-05 19:34:01+00:00,25.0,7.7,16.0,8.6,13.92,47.59359,-54.27349
2021-09-05 19:44:01+00:00,40.0,8.72,38.0,9.92,13.92,47.59359,-54.27349
2021-09-05 19:54:01+00:00,18.0,8.97,19.0,10.34,13.92,47.59359,-54.27349
2021-09-05 20:04:01+00:00,23.0,9.06,25.0,10.67,13.92,47.59359,-54.27349
2021-09-05 20:14:01+00:00,15.0,8.94,13.0,10.18,13.76,47.59359,-54.27349
2021-09-05 20:24:01+00:00,9.0,7.41,2.0,8.64,13.76,47.59359,-54.27349
2021-09-05 20:34:01+00:00,5.0,8.46,4.0,10.23,13.76,47.59359,-54.27349
2021-09-05 20:44:01+00:00,8.0,8.15,3.0,10.25,13.76,47.59359,-54.27349
2021-09-05 20:54:01+00:00,359.0,9.38,354.0,11.55,13.76,47.59359,-54.27349
2021-09-05 21:04:01+00:00,9.0,9.05,11.0,10.74,13.76,47.59359,-54.27349
2021-09-05 21:14:01+00:00,4.0,7.44,354.0,8.71,13.6,47.59359,-54.27349
2021-09-05 21:24:01+00:00,1.0,8.03,10.0,8.91,13.6,47.59359,-54.27349
2021-09-05 21:34:01+00:00,10.0,6.6,4.0,7.38,13.6,47.59359,-54.27349
2021-09-05 21:44:01+00:00,14.0,6.58,11.0,7.46,13.6,47.59359,-54.27349
2021-09-05 21:54:01+00:00,10.0,6.84,15.0,7.71,13.6,47.59359,-54.27349
2021-09-05 22:04:01+00:00,13.0,6.1,19.0,7.05,13.6,47.59359,-54.27349
2021-09-05 22:14:01+00:00,13.0,5.3,8.0,6.03,13.13,47.59359,-54.27349
2021-09-05 22:24:01+00:00,3.0,5.79,2.0,7.59,13.13,47.59359,-54.27349
2021-09-05 22:34:01+00:00,6.0,7.25,359.0,8.7,13.13,47.59359,-54.27349
2021-09-05 22:44:01+00:00,10.0,6.93,6.0,8.11,13.13,47.59359,-54.27349
2021-09-05 22:54:01+00:00,5.0,7.36,4.0,9.32,13.13,47.59359,-54.27349
2021-09-05 23:04:01+00:00,7.0,6.77,8.0,8.52,13.13,47.59359,-54.27349
2021-09-05 23:14:00+00:00,9.0,6.4,14.0,7.01,12.65,47.59359,-54.27349
2021-09-05 23:24:00+00:00,359.0,7.65,358.0,8.41,12.65,47.59359,-54.27349
2021-09-05 23:34:00+00:00,359.0,7.08,355.0,7.99,12.65,47.59359,-54.27349
2021-09-05 23:44:00+00:00,0.0,7.23,359.0,8.04,12.65,47.59359,-54.27349
2021-09-05 23:54:00+00:00,8.0,7.09,15.0,8.77,12.65,47.59359,-54.27349
